sat.trackr.live / text

‹ back to catalog

STARLINK-36226

NORAD 67209 · 2025-304T

PAYLOAD ACTIVE UNKNOWN

§ Identity

Operator
Country
US
Launch date
2025-12-17
Launch site
AFWTR
Launch vehicle
Mass (kg)
RCS (m²)

Purposes: comms

External: N2YO · Heavens-Above · Gunter

§ Orbital elements

Epoch: 2026-09-19T18:54:42.135552Z

Period
96.11 min
Inclination
70.0012°
Eccentricity
0.0003173
Mean motion
14.98333334 rev/d
Perigee alt
569.8 km
Apogee alt
574.3 km
Semi-major
6,950.2 km
B*
1.3193e-4
RAAN
45.2680°
Arg perigee
261.2380°
Mean anomaly
98.8419°
Rev number
4,295

§ Raw data

STARLINK-362261 67209U 25304T   26262.78798768  .00001482  00000+0  13193-3 0  99902 67209  70.0012  45.2680 0003173 261.2380  98.8419 14.98333334 42957

JSON: /api/v1/satellites/67209 · /tle

For live sub-satellite position, see the globe view (requires WebGL).

§ Visibility from observer

Set your observer location to see the next 7 days of passes ≥ 10°. The values pass through the URL so the page stays shareable.

No JS? Fill the form by hand. The geolocation button needs JavaScript.